DLH15R EDDF-EDDV

Flight info

Callsign DLH15R
Flight time 0h 30m
Altitude 20000
Route MARUN6E/07C MARUN Y153 WRB WRB1Z
Aircraft A320/M-SDE3FGHIRWY/LB1

Departure

Time 2026-05-01 12:31
Airport Frankfurt Main Airport (EDDF)

Arrival

Time 2026-05-01 13:01
Airport Hannover Airport (EDDV)
Time Latitude Longitude Altitude Speed Heading
2026-05-01 12:08 50.04584 8.56629 346 ft 0 kts 115°
2026-05-01 12:17 50.04585 8.56626 345 ft 1 kts 115°
2026-05-01 12:17 50.04593 8.56601 359 ft 3 kts 120°
2026-05-01 12:17 50.04604 8.56574 354 ft 3 kts 127°
2026-05-01 12:18 50.04617 8.56550 353 ft 3 kts 136°
2026-05-01 12:18 50.04632 8.56530 355 ft 3 kts 150°
2026-05-01 12:18 50.04650 8.56518 351 ft 3 kts 181°
2026-05-01 12:18 50.04661 8.56520 350 ft 0 kts 205°
2026-05-01 12:21 50.04644 8.56507 350 ft 7 kts 205°
2026-05-01 12:22 50.04589 8.56467 353 ft 12 kts 205°
2026-05-01 12:22 50.04524 8.56397 349 ft 12 kts 237°
2026-05-01 12:22 50.04493 8.56273 352 ft 12 kts 250°
2026-05-01 12:22 50.04466 8.56156 352 ft 12 kts 250°
2026-05-01 12:23 50.04431 8.56045 351 ft 12 kts 221°
2026-05-01 12:23 50.04345 8.56058 348 ft 14 kts 159°
2026-05-01 12:23 50.04261 8.56018 351 ft 14 kts 244°
2026-05-01 12:23 50.04204 8.55918 347 ft 12 kts 187°
2026-05-01 12:24 50.04124 8.55957 353 ft 13 kts 159°
2026-05-01 12:24 50.04045 8.55925 349 ft 13 kts 236°
2026-05-01 12:24 50.04004 8.55752 353 ft 18 kts 250°
2026-05-01 12:24 50.03962 8.55572 352 ft 17 kts 249°
2026-05-01 12:25 50.03921 8.55408 353 ft 16 kts 249°
2026-05-01 12:25 50.03851 8.55112 351 ft 14 kts 250°
2026-05-01 12:25 50.03819 8.54977 352 ft 13 kts 249°
2026-05-01 12:26 50.03789 8.54853 353 ft 12 kts 249°
2026-05-01 12:26 50.03697 8.54710 346 ft 9 kts 171°
2026-05-01 12:26 50.03668 8.54725 354 ft 0 kts 161°
2026-05-01 12:28 50.03584 8.54799 353 ft 7 kts 90°
2026-05-01 12:28 50.03587 8.54821 351 ft 0 kts 73°
2026-05-01 12:30 50.03591 8.54839 350 ft 7 kts 72°
2026-05-01 12:30 50.03679 8.55210 348 ft 74 kts 70°
2026-05-01 12:31 50.03931 8.56276 356 ft 133 kts 69°
2026-05-01 12:31 50.04305 8.57818 600 ft 161 kts 72°
2026-05-01 12:31 50.04697 8.59485 1380 ft 166 kts 73°
2026-05-01 12:31 50.05087 8.61255 2012 ft 183 kts 74°
2026-05-01 12:32 50.05519 8.63263 2396 ft 207 kts 74°
2026-05-01 12:32 50.06534 8.67873 4133 ft 228 kts 73°
2026-05-01 12:32 50.07143 8.70165 5012 ft 235 kts 60°
2026-05-01 12:33 50.08395 8.71938 5618 ft 261 kts 30°
2026-05-01 12:33 50.10121 8.73141 6222 ft 278 kts 25°
2026-05-01 12:33 50.11956 8.74340 7089 ft 286 kts 25°
2026-05-01 12:33 50.13783 8.75531 8016 ft 290 kts 25°
2026-05-01 12:34 50.15042 8.76356 8648 ft 292 kts 24°
2026-05-01 12:34 50.17033 8.77142 9603 ft 299 kts 12°
2026-05-01 12:34 50.19094 8.77666 10530 ft 303 kts 11°
2026-05-01 12:34 50.21262 8.78214 10892 ft 327 kts 11°
2026-05-01 12:35 50.23573 8.78792 11384 ft 342 kts 11°
2026-05-01 12:35 50.25942 8.79374 12177 ft 347 kts 11°
2026-05-01 12:35 50.28342 8.79960 13015 ft 351 kts 11°
2026-05-01 12:35 50.30761 8.80554 13846 ft 353 kts 11°
2026-05-01 12:36 50.33204 8.81157 14617 ft 357 kts 11°
2026-05-01 12:36 50.35662 8.81769 15320 ft 360 kts 11°
2026-05-01 12:36 50.38149 8.82390 16019 ft 363 kts 11°
2026-05-01 12:36 50.40661 8.83017 16726 ft 367 kts 11°
2026-05-01 12:37 50.43195 8.83649 17429 ft 371 kts 11°
2026-05-01 12:37 50.45753 8.84292 18108 ft 374 kts 11°
2026-05-01 12:37 50.48337 8.84942 18773 ft 378 kts 11°
2026-05-01 12:37 50.50980 8.85605 19371 ft 381 kts 11°
2026-05-01 12:38 50.53606 8.86263 19966 ft 383 kts 11°
2026-05-01 12:38 50.56246 8.86922 20262 ft 385 kts 11°
2026-05-01 12:38 50.58881 8.87581 20334 ft 380 kts 11°
2026-05-01 12:38 50.61476 8.88230 20348 ft 376 kts 11°
2026-05-01 12:39 50.64059 8.88877 20351 ft 375 kts 11°
2026-05-01 12:39 50.66639 8.89526 20346 ft 375 kts 11°
2026-05-01 12:39 50.69213 8.90175 20348 ft 375 kts 11°
2026-05-01 12:39 50.71793 8.90826 20349 ft 375 kts 11°
2026-05-01 12:40 50.74367 8.91475 20352 ft 375 kts 11°
2026-05-01 12:40 50.76947 8.92130 20352 ft 375 kts 11°
2026-05-01 12:40 50.79522 8.92783 20352 ft 375 kts 11°
2026-05-01 12:40 50.82100 8.93436 20347 ft 375 kts 11°
2026-05-01 12:41 50.84681 8.94094 20342 ft 375 kts 11°
2026-05-01 12:41 50.87255 8.94755 20344 ft 375 kts 11°
2026-05-01 12:41 50.89828 8.95415 20344 ft 375 kts 11°
2026-05-01 12:41 50.92404 8.96072 20342 ft 375 kts 11°
2026-05-01 12:42 50.94980 8.96729 20341 ft 375 kts 11°
2026-05-01 12:42 50.97561 8.97387 20340 ft 375 kts 11°
2026-05-01 12:42 51.00138 8.98045 20343 ft 376 kts 11°
2026-05-01 12:42 51.02719 8.98704 20339 ft 375 kts 11°
2026-05-01 12:43 51.05295 8.99363 20336 ft 375 kts 11°
2026-05-01 12:43 51.07879 9.00020 20341 ft 376 kts 11°
2026-05-01 12:43 51.10459 9.00679 20343 ft 376 kts 11°
2026-05-01 12:43 51.13035 9.01339 20343 ft 376 kts 11°
2026-05-01 12:44 51.15625 9.02002 20343 ft 376 kts 11°
2026-05-01 12:44 51.18205 9.02666 20346 ft 376 kts 11°
2026-05-01 12:44 51.23382 9.04004 20345 ft 376 kts 11°
2026-05-01 12:45 51.28542 9.05357 20351 ft 377 kts 11°
2026-05-01 12:45 51.31127 9.06034 20363 ft 377 kts 11°
2026-05-01 12:45 51.33717 9.06706 20367 ft 377 kts 11°
2026-05-01 12:46 51.36306 9.07371 20368 ft 377 kts 11°
2026-05-01 12:46 51.38895 9.08038 20370 ft 377 kts 11°
2026-05-01 12:46 51.41519 9.08720 20368 ft 377 kts 11°
2026-05-01 12:46 51.44105 9.09395 20373 ft 377 kts 11°
2026-05-01 12:47 51.46694 9.10073 20371 ft 377 kts 11°
2026-05-01 12:47 51.49284 9.10751 20371 ft 377 kts 11°
2026-05-01 12:47 51.51873 9.11420 20370 ft 377 kts 11°
2026-05-01 12:47 51.54470 9.12020 20367 ft 377 kts
2026-05-01 12:48 51.57073 9.12574 20369 ft 377 kts
2026-05-01 12:48 51.59684 9.13111 20368 ft 377 kts
2026-05-01 12:48 51.62276 9.13642 20363 ft 378 kts
2026-05-01 12:48 51.64917 9.14191 20366 ft 385 kts
2026-05-01 12:49 51.67575 9.14747 20362 ft 386 kts
2026-05-01 12:49 51.70244 9.15313 20361 ft 386 kts
2026-05-01 12:49 51.72907 9.15890 20356 ft 387 kts
2026-05-01 12:49 51.75574 9.16474 20350 ft 387 kts 10°
2026-05-01 12:50 51.78241 9.17062 20358 ft 387 kts
2026-05-01 12:50 51.80909 9.17644 20359 ft 387 kts
2026-05-01 12:50 51.83582 9.18228 20358 ft 387 kts
2026-05-01 12:50 51.86249 9.18813 20358 ft 387 kts 10°
2026-05-01 12:51 51.88908 9.19394 20297 ft 381 kts
2026-05-01 12:51 51.91564 9.19973 19346 ft 391 kts
2026-05-01 12:51 51.96982 9.21153 17748 ft 392 kts
2026-05-01 12:52 51.99673 9.21739 17014 ft 389 kts
2026-05-01 12:52 52.05068 9.22929 15141 ft 389 kts 10°
2026-05-01 12:52 52.07739 9.23517 14175 ft 385 kts 10°
2026-05-01 12:53 52.12995 9.24668 12082 ft 377 kts
2026-05-01 12:53 52.15580 9.25239 11077 ft 373 kts 10°
2026-05-01 12:53 52.18112 9.25818 10522 ft 356 kts 10°
2026-05-01 12:54 52.20475 9.26358 10394 ft 330 kts 10°
2026-05-01 12:54 52.24777 9.27318 9691 ft 303 kts 10°
2026-05-01 12:54 52.26848 9.27783 9126 ft 298 kts 10°
2026-05-01 12:55 52.30928 9.28691 7889 ft 293 kts 10°
2026-05-01 12:55 52.32936 9.29145 7266 ft 290 kts 10°
2026-05-01 12:55 52.34915 9.29600 6805 ft 281 kts
2026-05-01 12:56 52.36853 9.30045 6183 ft 281 kts 10°
2026-05-01 12:56 52.38776 9.30494 5547 ft 279 kts 10°
2026-05-01 12:56 52.40695 9.30942 4934 ft 278 kts
2026-05-01 12:56 52.42594 9.31390 4447 ft 274 kts 10°
2026-05-01 12:57 52.44441 9.32058 4092 ft 269 kts 27°
2026-05-01 12:57 52.46281 9.36520 3806 ft 230 kts 89°
2026-05-01 12:57 52.46267 9.39124 3583 ft 222 kts 95°
2026-05-01 12:58 52.46189 9.41633 3316 ft 219 kts 95°
2026-05-01 12:58 52.46119 9.44117 3025 ft 218 kts 95°
2026-05-01 12:58 52.46056 9.46577 2757 ft 213 kts 95°
2026-05-01 12:59 52.45932 9.51377 2164 ft 207 kts 95°
2026-05-01 12:59 52.45871 9.53710 1930 ft 204 kts 94°
2026-05-01 12:59 52.45757 9.58083 1373 ft 178 kts 95°
2026-05-01 13:00 52.45657 9.61836 924 ft 149 kts 94°
2026-05-01 13:00 52.45614 9.63447 723 ft 138 kts 95°
2026-05-01 13:01 52.45534 9.66465 404 ft 132 kts 95°
2026-05-01 13:01 52.45488 9.67971 210 ft 132 kts 95°
2026-05-01 13:01 52.45430 9.70137 187 ft 48 kts 93°
2026-05-01 13:02 52.45419 9.70602 190 ft 27 kts 81°
2026-05-01 13:07 52.45921 9.69203 199 ft 7 kts 84°
2026-05-01 13:07 52.45918 9.69267 202 ft 6 kts 94°
2026-05-01 13:07 52.45918 9.69295 191 ft 0 kts 93°